sat.trackr.live / text

‹ back to catalog

APSTAR-6E SPS

NORAD 55447 · 2023-005C

PAYLOAD ACTIVE UNKNOWN

§ Identity

Operator
Country
PRC
Launch date
2023-01-12
Launch site
XICLF
Launch vehicle
Mass (kg)
RCS (m²)

External: N2YO · Heavens-Above · Gunter

§ Orbital elements

Epoch: 2026-09-21T04:22:51.170880Z

Period
189.33 min
Inclination
28.6272°
Eccentricity
0.2271910
Mean motion
7.60567958 rev/d
Perigee alt
2,062.6 km
Apogee alt
7,025.5 km
Semi-major
10,922.2 km
B*
5.0650e-3
RAAN
159.5512°
Arg perigee
113.1414°
Mean anomaly
272.3544°
Rev number
10,117

§ Raw data

APSTAR-6E SPS1 55447U 23005C   26264.18253670  .00000033  00000+0  50650-2 0  99902 55447  28.6272 159.5512 2271910 113.1414 272.3544  7.60567958101179

JSON: /api/v1/satellites/55447 · /tle

For live sub-satellite position, see the globe view (requires WebGL).

§ Visibility from observer

Set your observer location to see the next 7 days of passes ≥ 10°. The values pass through the URL so the page stays shareable.

No JS? Fill the form by hand. The geolocation button needs JavaScript.